EW9665 Weather Reports


time (UTC)temp
C
wind
direction
speed
KPH
gust
KPH
rain 1hr
cm
rain 24hr
cm
rain mn
cm
humidity
%
barometer
mb
20260507061016 8 0 0.0 0.0 0.00 0.05 0.00 89 1016.6
20260507060515 8 0 0.0 0.0 0.00 0.05 0.00 89 1016.5
20260507060032 8 0 0.0 1.6 0.00 0.05 0.00 89 1016.4
20260507055515 8 0 0.0 1.6 0.00 0.08 0.00 90 1016.3
20260507055016 8 0 0.0 1.6 0.00 0.08 0.00 90 1016.4
20260507054529 8 0 0.0 0.0 0.00 0.08 0.00 90 1016.4
20260507054015 8 0 0.0 0.0 0.00 0.08 0.00 90 1016.3
20260507053515 8 0 0.0 0.0 0.00 0.08 0.00 90 1016.3
20260507053031 8 0 0.0 6.4 0.00 0.08 0.00 90 1016.2
20260507052515 8 0 0.0 6.4 0.00 0.08 0.00 90 1016.2
20260507052016 8 0 0.0 6.4 0.00 0.08 0.00 90 1016.3
20260507051534 7 0 1.6 6.4 0.00 0.08 0.00 90 1016.2
20260507051015 7 344 0.0 6.4 0.00 0.08 0.00 90 1016.2
20260507050514 7 0 0.0 0.0 0.00 0.08 0.00 90 1016.2
20260507050041 7 0 0.0 0.0 0.00 0.08 0.00 90 1016.0
20260507045516 7 0 0.0 0.0 0.00 0.15 0.00 90 1016.0
20260507045019 7 0 0.0 0.0 0.00 0.15 0.00 90 1016.0
20260507044532 7 0 0.0 0.0 0.00 0.15 0.00 91 1016.0
20260507044013 7 0 0.0 0.0 0.00 0.15 0.00 91 1016.0
20260507043515 7 0 0.0 0.0 0.00 0.15 0.00 91 1015.8
20260507043033 7 0 0.0 0.0 0.00 0.15 0.00 91 1015.8
20260507042515 7 0 0.0 0.0 0.00 0.15 0.00 91 1015.8
20260507042014 7 0 0.0 4.8 0.00 0.15 0.00 90 1015.8
20260507041530 7 0 0.0 4.8 0.00 0.15 0.00 90 1015.8
20260507041014 7 0 0.0 1.6 0.00 0.15 0.00 90 1015.7
20260507040516 7 0 0.0 1.6 0.00 0.15 0.00 90 1015.6
20260507040031 7 0 0.0 0.0 0.00 0.15 0.00 90 1015.7
20260507035515 7 0 0.0 0.0 0.00 0.18 0.00 90 1015.6
20260507035014 7 0 0.0 0.0 0.00 0.18 0.00 90 1015.6
20260507034530 7 0 0.0 0.0 0.00 0.18 0.00 90 1015.6
20260507034017 7 0 0.0 0.0 0.00 0.18 0.00 90 1015.5
20260507033517 7 0 0.0 0.0 0.00 0.18 0.00 90 1015.4
20260507033032 7 0 0.0 0.0 0.00 0.18 0.00 90 1015.5
20260507032514 7 0 0.0 1.6 0.00 0.18 0.00 90 1015.5
20260507032017 7 0 0.0 1.6 0.00 0.18 0.00 90 1015.4
20260507031534 7 0 0.0 0.0 0.00 0.18 0.00 90 1015.3
20260507031015 7 0 0.0 0.0 0.00 0.18 0.00 90 1015.4
20260507030519 7 0 0.0 0.0 0.00 0.18 0.00 90 1015.4
20260507030036 7 0 0.0 0.0 0.00 0.18 0.00 90 1015.4
20260507025516 7 0 0.0 0.0 0.00 0.20 0.00 90 1015.4
20260507025015 7 0 0.0 0.0 0.00 0.20 0.00 90 1015.3
20260507024533 7 0 0.0 0.0 0.00 0.20 0.00 90 1015.3
20260507024013 7 0 0.0 0.0 0.00 0.20 0.00 90 1015.4
20260507023515 7 0 0.0 0.0 0.00 0.20 0.00 90 1015.4
20260507023030 7 0 0.0 0.0 0.00 0.20 0.00 90 1015.3
20260507022516 7 0 0.0 0.0 0.00 0.20 0.00 90 1015.2
20260507022015 7 0 0.0 0.0 0.00 0.20 0.00 90 1015.2
20260507021530 7 0 0.0 0.0 0.00 0.20 0.00 90 1015.2
20260507021016 7 0 0.0 0.0 0.00 0.20 0.00 90 1015.1
20260507020516 7 0 0.0 0.0 0.00 0.20 0.00 90 1015.0
20260507020035 7 0 0.0 0.0 0.00 0.20 0.00 90 1015.0
20260507015520 7 0 0.0 0.0 0.00 0.23 0.00 90 1014.9
20260507015015 7 0 0.0 0.0 0.00 0.23 0.00 90 1015.0
20260507014531 7 0 0.0 0.0 0.00 0.23 0.00 90 1014.9
20260507014016 7 0 0.0 0.0 0.00 0.23 0.00 90 1015.0
20260507013516 7 0 0.0 0.0 0.00 0.23 0.00 90 1014.9
20260507013031 7 0 0.0 0.0 0.00 0.23 0.00 90 1015.0
20260507012515 7 0 0.0 0.0 0.00 0.23 0.00 90 1015.0
20260507012015 7 0 0.0 0.0 0.00 0.23 0.00 90 1015.0
20260507011537 7 0 0.0 0.0 0.00 0.23 0.00 90 1015.0
20260507011015 7 0 0.0 0.0 0.00 0.23 0.00 90 1015.0
20260507010515 7 0 0.0 0.0 0.00 0.23 0.00 90 1015.0
20260507010048 7 0 0.0 0.0 0.00 0.23 0.00 90 1015.0
20260507005513 7 0 0.0 0.0 0.00 0.30 0.00 90 1014.9
20260507005017 7 0 0.0 0.0 0.00 0.30 0.00 90 1014.9
20260507004532 7 0 0.0 0.0 0.00 0.30 0.00 90 1014.9
20260507004016 7 0 0.0 0.0 0.00 0.30 0.00 90 1014.9
20260507003515 7 0 0.0 0.0 0.00 0.30 0.00 90 1014.9
20260507003032 7 0 0.0 0.0 0.00 0.30 0.00 90 1014.9
20260507002514 7 0 0.0 0.0 0.00 0.30 0.00 90 1014.9
20260507002021 7 0 0.0 0.0 0.00 0.30 0.00 90 1014.9
20260507001530 7 0 0.0 0.0 0.00 0.30 0.00 90 1014.8
20260507001014 7 0 0.0 0.0 0.00 0.30 0.00 90 1015.0
20260507000518 8 0 0.0 0.0 0.00 0.30 0.00 90 1014.9
20260507000029 8 0 0.0 0.0 0.00 0.30 0.00 90 1014.7
20260506235517 8 0 0.0 0.0 0.00 0.36 0.00 90 1014.8
20260506235014 8 0 0.0 0.0 0.00 0.36 0.00 90 1014.7
20260506234532 8 0 0.0 0.0 0.00 0.36 0.00 90 1014.8
20260506234016 8 0 0.0 0.0 0.00 0.36 0.00 90 1014.7
20260506233517 8 0 0.0 0.0 0.00 0.36 0.00 90 1014.7
20260506233030 8 0 0.0 0.0 0.00 0.36 0.00 90 1014.6
20260506232515 8 0 0.0 0.0 0.00 0.36 0.00 90 1014.6
20260506232014 8 0 0.0 0.0 0.00 0.36 0.00 90 1014.5
20260506231533 8 0 0.0 0.0 0.00 0.36 0.00 90 1014.5
20260506231017 8 0 0.0 0.0 0.00 0.36 0.00 90 1014.5
20260506230515 8 0 0.0 0.0 0.00 0.36 0.00 90 1014.5
20260506230032 8 0 0.0 0.0 0.00 0.36 0.00 89 1014.5
20260506225515 8 0 0.0 1.6 0.00 0.46 0.00 90 1014.4
20260506225015 8 0 0.0 1.6 0.00 0.46 0.00 89 1014.3
20260506224535 8 0 0.0 0.0 0.00 0.46 0.00 89 1014.2
20260506224017 8 0 0.0 0.0 0.00 0.46 0.00 89 1014.1
20260506223515 8 0 0.0 0.0 0.00 0.46 0.00 89 1014.0
20260506223032 8 0 0.0 1.6 0.00 0.46 0.00 89 1014.0
20260506222515 8 0 0.0 1.6 0.00 0.46 0.00 89 1014.1
20260506222018 8 0 0.0 1.6 0.00 0.46 0.00 89 1014.0
20260506221529 8 0 0.0 4.8 0.00 0.46 0.00 89 1014.0
20260506221014 7 0 0.0 4.8 0.00 0.46 0.00 89 1013.9
20260506220514 7 0 0.0 0.0 0.00 0.46 0.00 89 1013.9
20260506220035 7 0 0.0 0.0 0.00 0.46 0.00 89 1014.0
20260506215519 7 0 0.0 0.0 0.00 0.56 0.46 89 1014.0
20260506215016 7 0 0.0 0.0 0.00 0.56 0.46 89 1014.0
20260506214536 7 0 0.0 0.0 0.00 0.56 0.46 89 1013.9
20260506214013 7 0 0.0 0.0 0.00 0.56 0.46 89 1013.9
20260506213517 7 0 0.0 0.0 0.00 0.56 0.46 89 1013.8
20260506213029 7 0 0.0 0.0 0.00 0.56 0.46 89 1013.8
20260506212515 7 0 0.0 0.0 0.00 0.56 0.46 89 1013.7
20260506212020 7 0 0.0 0.0 0.00 0.56 0.46 89 1013.8
20260506211534 7 0 0.0 0.0 0.00 0.56 0.46 88 1013.7
20260506211016 7 0 0.0 0.0 0.00 0.56 0.46 88 1013.7
20260506210513 7 0 0.0 0.0 0.00 0.56 0.46 88 1013.6
20260506210033 7 0 0.0 1.6 0.00 0.56 0.46 88 1013.5
20260506205514 7 0 0.0 3.2 0.00 0.66 0.46 87 1013.6
20260506205015 7 0 0.0 3.2 0.00 0.66 0.46 87 1013.5
20260506204535 7 0 0.0 3.2 0.00 0.66 0.46 86 1013.5
20260506204015 7 0 0.0 4.8 0.00 0.66 0.46 86 1013.5
20260506203515 7 0 0.0 4.8 0.00 0.66 0.46 85 1013.5
20260506203033 7 0 0.0 4.8 0.00 0.66 0.46 85 1013.4
20260506202514 7 0 0.0 3.2 0.00 0.66 0.46 84 1013.5
20260506202016 8 0 0.0 3.2 0.00 0.66 0.46 84 1013.4
20260506201538 8 355 0.0 3.2 0.00 0.66 0.46 84 1013.3
20260506201016 8 0 0.0 3.2 0.00 0.66 0.46 84 1013.3
20260506200515 8 0 0.0 3.2 0.00 0.66 0.46 83 1013.3
20260506200030 8 355 0.0 3.2 0.00 0.66 0.46 83 1013.2
20260506195516 8 0 0.0 3.2 0.00 0.79 0.46 83 1013.1
20260506195015 8 355 0.0 3.2 0.00 0.79 0.46 82 1013.1
20260506194528 8 0 0.0 4.8 0.00 0.79 0.46 82 1013.0
20260506194017 8 0 0.0 4.8 0.00 0.79 0.46 81 1013.0
20260506193515 9 353 0.0 4.8 0.00 0.79 0.46 81 1012.9
20260506193031 9 353 0.0 6.4 0.00 0.79 0.46 81 1012.8
20260506192515 9 356 0.0 6.4 0.00 0.79 0.46 81 1012.7
20260506192017 10 0 0.0 3.2 0.00 0.79 0.46 80 1012.6
20260506191533 10 0 0.0 3.2 0.00 0.79 0.46 79 1012.5
20260506191013 10 0 0.0 3.2 0.00 0.79 0.46 79 1012.5
20260506190516 10 0 0.0 4.8 0.00 0.79 0.46 78 1012.4
20260506190031 10 0 0.0 11.3 0.00 0.79 0.46 77 1012.4
20260506185515 10 6 0.0 11.3 0.00 0.79 0.46 77 1012.3
20260506185017 10 43 1.6 8.0 0.00 0.79 0.46 77 1012.3
20260506184533 10 29 1.6 6.4 0.00 0.79 0.46 77 1012.2
20260506184015 10 0 0.0 6.4 0.00 0.79 0.46 77 1012.1
20260506183513 10 0 1.6 6.4 0.00 0.79 0.46 76 1012.2
20260506183032 10 23 1.6 6.4 0.00 0.79 0.46 76 1012.1
20260506182515 11 58 1.6 8.0 0.00 0.79 0.46 76 1012.0
20260506182014 11 78 1.6 9.7 0.00 0.79 0.46 76 1012.0
20260506181532 11 48 1.6 9.7 0.00 0.79 0.46 76 1011.9
20260506181016 11 71 3.2 9.7 0.00 0.79 0.46 77 1011.8
20260506180516 11 0 1.6 8.0 0.00 0.79 0.46 76 1011.7
20260506180038 11 38 1.6 12.9 0.00 0.79 0.46 76 1011.6
20260506175516 11 67 1.6 12.9 0.00 0.79 0.46 77 1011.5
20260506175017 11 0 1.6 9.7 0.00 0.79 0.46 78 1011.5
20260506174533 12 33 3.2 8.0 0.00 0.79 0.46 78 1011.4
20260506174013 12 0 0.0 4.8 0.00 0.79 0.46 78 1011.4
20260506173515 12 18 0.0 8.0 0.00 0.79 0.46 78 1011.3
20260506173031 12 0 1.6 9.7 0.00 0.79 0.46 77 1011.3
20260506172515 12 0 1.6 11.3 0.00 0.79 0.46 77 1011.2
20260506172013 12 40 1.6 11.3 0.00 0.79 0.46 77 1011.2
20260506171539 12 66 1.6 11.3 0.00 0.79 0.46 77 1011.2
20260506171015 12 0 1.6 11.3 0.00 0.79 0.46 78 1011.2
20260506170517 12 58 1.6 11.3 0.00 0.79 0.46 79 1011.1
20260506170027 12 0 0.0 4.8 0.00 0.79 0.46 79 1011.1
20260506165516 12 0 0.0 4.8 0.00 0.79 0.46 79 1011.0
20260506165015 12 326 0.0 8.0 0.00 0.79 0.46 79 1011.0
20260506164531 12 325 1.6 8.0 0.00 0.79 0.46 79 1010.9
20260506164013 12 325 3.2 6.4 0.00 0.79 0.46 78 1010.9
20260506163517 12 316 3.2 9.7 0.00 0.79 0.46 79 1010.9
20260506163035 12 335 3.2 9.7 0.00 0.79 0.46 78 1010.9
20260506162513 12 339 3.2 8.0 0.00 0.79 0.46 78 1010.8
20260506162014 12 344 1.6 8.0 0.00 0.79 0.46 78 1010.8
20260506161532 12 0 1.6 9.7 0.00 0.79 0.46 79 1010.8
20260506161013 12 0 1.6 9.7 0.00 0.79 0.46 77 1010.8
20260506160515 12 352 0.0 11.3 0.00 0.79 0.46 78 1010.9
20260506160032 12 0 0.0 11.3 0.00 0.79 0.46 77 1010.8
20260506155512 12 319 4.8 12.9 0.00 0.79 0.46 78 1010.9
20260506155016 12 341 1.6 12.9 0.00 0.79 0.46 78 1010.8
20260506154533 12 349 3.2 14.5 0.00 0.79 0.46 78 1010.8
20260506154012 12 331 6.4 14.5 0.00 0.79 0.46 78 1010.7
20260506153513 12 356 3.2 11.3 0.00 0.79 0.46 79 1010.6
20260506153031 12 313 4.8 11.3 0.00 0.79 0.46 79 1010.6
20260506152520 12 334 3.2 11.3 0.00 0.79 0.46 82 1010.7
20260506152014 12 0 1.6 11.3 0.00 0.79 0.46 82 1010.6
20260506151533 12 291 1.6 11.3 0.00 0.79 0.46 82 1010.6
20260506151014 12 0 0.0 0.0 0.00 0.79 0.46 84 1010.7
20260506150515 12 0 0.0 0.0 0.00 0.79 0.46 84 1010.6
20260506150032 11 0 0.0 0.0 0.00 0.79 0.46 84 1010.6
20260506145515 11 0 0.0 0.0 0.00 0.79 0.46 84 1010.6
20260506145012 11 0 0.0 0.0 0.00 0.79 0.46 84 1010.7
20260506144530 11 0 0.0 0.0 0.00 0.79 0.46 84 1010.7
20260506144013 11 0 0.0 0.0 0.00 0.79 0.46 85 1010.6
20260506143514 11 0 0.0 0.0 0.00 0.79 0.46 86 1010.7
20260506143028 11 0 0.0 0.0 0.00 0.79 0.46 86 1010.8
20260506142515 11 0 0.0 0.0 0.00 0.79 0.46 85 1010.8
20260506142015 11 0 0.0 0.0 0.00 0.79 0.46 85 1010.8
20260506141530 11 0 0.0 3.2 0.00 0.79 0.46 85 1010.7
20260506141014 11 0 0.0 4.8 0.00 0.79 0.46 86 1010.8
20260506140513 11 0 0.0 9.7 0.00 0.79 0.46 85 1010.8
20260506140034 11 333 1.6 9.7 0.00 0.79 0.46 85 1010.7
20260506135513 11 333 3.2 9.7 0.00 0.79 0.46 85 1010.9
20260506135013 11 305 1.6 6.4 0.00 0.79 0.46 85 1010.8
20260506134533 11 299 1.6 11.3 0.00 0.79 0.46 86 1010.8
20260506134014 11 293 3.2 11.3 0.00 0.79 0.46 86 1010.8
20260506133515 11 300 3.2 9.7 0.00 0.79 0.46 87 1010.8
20260506133031 11 309 3.2 9.7 0.00 0.79 0.46 89 1010.8
20260506132516 11 309 0.0 6.4 0.00 0.79 0.46 89 1010.7
20260506132012 11 308 3.2 6.4 0.00 0.79 0.46 89 1010.9
20260506131534 11 308 3.2 6.4 0.00 0.79 0.46 90 1010.8
20260506131016 11 0 0.0 8.0 0.00 0.79 0.46 91 1010.8
20260506130517 11 0 1.6 8.0 0.00 0.79 0.46 91 1010.8
20260506130030 11 310 1.6 8.0 0.00 0.79 0.46 92 1010.7
20260506125515 11 318 3.2 8.0 0.00 0.79 0.46 92 1010.7
20260506125016 11 280 0.0 8.0 0.00 0.79 0.46 92 1010.6
20260506124533 11 264 3.2 8.0 0.00 0.79 0.46 92 1010.6
20260506124013 11 314 3.2 9.7 0.00 0.79 0.46 92 1010.6
20260506123515 11 289 1.6 9.7 0.00 0.79 0.46 93 1010.5
20260506123029 10 320 3.2 6.4 0.00 0.79 0.46 93 1010.6
20260506122518 10 325 1.6 8.0 0.00 0.79 0.46 93 1010.4
20260506122018 10 326 1.6 8.0 0.00 0.79 0.46 93 1010.6
20260506121534 10 328 1.6 8.0 0.00 0.79 0.46 94 1010.6
20260506121017 10 0 1.6 8.0 0.00 0.79 0.46 94 1010.5
20260506120517 10 0 0.0 9.7 0.00 0.79 0.46 94 1010.6
20260506120039 10 339 3.2 9.7 0.00 0.79 0.46 94 1010.4
20260506115516 10 335 1.6 14.5 0.00 0.79 0.46 95 1010.5
20260506115017 10 0 3.2 14.5 0.00 0.79 0.46 95 1010.4
20260506114538 10 326 4.8 14.5 0.00 0.79 0.46 95 1010.4
20260506114015 10 0 1.6 8.0 0.00 0.79 0.46 95 1010.4
20260506113519 10 0 0.0 9.7 0.00 0.79 0.46 95 1010.5
20260506113032 10 331 1.6 9.7 0.00 0.79 0.46 95 1010.4
20260506112519 10 326 0.0 11.3 0.00 0.79 0.46 95 1010.5
20260506112018 10 336 1.6 12.9 0.00 0.79 0.46 95 1010.4
20260506111529 10 0 3.2 12.9 0.00 0.79 0.46 95 1010.5
20260506111017 10 345 3.2 12.9 0.00 0.79 0.46 95 1010.5
20260506110519 10 52 0.0 6.4 0.00 0.79 0.46 96 1010.4
20260506110034 10 0 0.0 8.0 0.00 0.79 0.46 96 1010.4
20260506105519 10 0 0.0 8.0 0.00 0.81 0.46 96 1010.4
20260506105017 10 0 0.0 6.4 0.00 0.81 0.46 96 1010.6
20260506104534 10 0 0.0 1.6 0.00 0.81 0.46 95 1010.6
20260506104016 10 0 0.0 4.8 0.00 0.81 0.46 96 1010.7
20260506103517 9 0 0.0 4.8 0.00 0.81 0.46 96 1010.7
20260506103033 9 0 0.0 4.8 0.00 0.81 0.46 96 1010.6
20260506102518 9 0 0.0 6.4 0.00 0.81 0.46 95 1010.6
20260506102016 9 349 0.0 8.0 0.00 0.81 0.46 95 1010.6
20260506101530 9 0 1.6 8.0 0.00 0.81 0.46 95 1010.6
20260506101015 9 341 1.6 9.7 0.00 0.81 0.46 96 1010.6
20260506100515 8 0 0.0 9.7 0.00 0.81 0.46 96 1010.5
20260506100029 8 0 0.0 8.0 0.00 0.81 0.46 95 1010.4
20260506095516 8 0 0.0 8.0 0.00 0.81 0.46 95 1010.4
20260506095016 8 0 0.0 11.3 0.00 0.81 0.46 95 1010.3
20260506094529 8 0 1.6 11.3 0.00 0.81 0.46 95 1010.4
20260506094015 8 0 1.6 11.3 0.00 0.81 0.46 95 1010.3
20260506093520 8 0 1.6 11.3 0.00 0.81 0.46 95 1010.3
20260506093032 8 0 1.6 9.7 0.00 0.81 0.46 95 1010.3
20260506092520 8 345 0.0 11.3 0.00 0.81 0.46 95 1010.2
20260506092016 8 0 3.2 11.3 0.00 0.81 0.46 95 1010.2
20260506091531 8 331 0.0 9.7 0.00 0.81 0.46 95 1010.1
20260506091016 8 0 0.0 9.7 0.00 0.81 0.46 95 1010.2
20260506090515 8 0 0.0 6.4 0.00 0.81 0.46 95 1010.0
20260506090029 8 0 0.0 12.9 0.00 0.81 0.46 95 1010.1
20260506085515 8 0 1.6 14.5 0.00 0.81 0.46 95 1010.0
20260506085016 8 0 1.6 14.5 0.03 0.81 0.46 95 1009.9
20260506084539 8 0 3.2 14.5 0.03 0.81 0.46 95 1009.8
20260506084015 8 0 0.0 19.3 0.03 0.81 0.46 95 1009.9
20260506083516 8 48 4.8 19.3 0.03 0.81 0.46 95 1009.8
20260506083030 8 0 1.6 12.9 0.03 0.81 0.46 95 1009.8
20260506082515 8 0 3.2 14.5 0.03 0.81 0.46 95 1009.7
20260506082018 8 348 1.6 16.1 0.03 0.81 0.46 95 1009.7
20260506081533 8 2 3.2 16.1 0.03 0.81 0.46 95 1009.6
20260506081015 8 324 4.8 16.1 0.03 0.81 0.46 95 1009.6
20260506080516 8 15 3.2 16.1 0.03 0.81 0.46 95 1009.6
20260506073517 7 1 3.2 14.5 0.00 0.79 0.43 95 1009.5
20260506073029 7 62 1.6 12.9 0.00 0.79 0.43 95 1009.4
20260506072514 7 18 3.2 11.3 0.00 0.79 0.43 95 1009.5
20260506072016 7 348 1.6 9.7 0.03 0.79 0.43 95 1009.4
20260506071532 7 0 1.6 11.3 0.03 0.79 0.43 95 1009.4
20260506071017 7 322 1.6 14.5 0.03 0.79 0.43 95 1009.5
20260506070517 7 0 4.8 14.5 0.03 0.79 0.43 95 1009.4
20260506062515 7 0 0.0 9.7 0.03 0.79 0.43 95 1009.2
20260506062016 7 335 1.6 9.7 0.00 0.76 0.41 95 1009.1
20260506061538 7 335 0.0 11.3 0.00 0.76 0.41 95 1009.2